{"data":{"norad_id":64337,"epoch":"2026-05-25T02:54:03.841056Z","epoch_age_seconds":67708,"freshness":"FRESH","line1":"1 64337U 25124W   26145.12087779  .00016692  00000+0  61440-3 0  9997","line2":"2 64337  43.0043  49.7108 0001367 261.0833  98.9864 15.27598092 53479","mean_motion":15.27598092,"eccentricity":0.0001367,"inclination_deg":43.0043,"raan_deg":49.7108,"arg_perigee_deg":261.0833,"mean_anomaly_deg":98.9864,"bstar":0.0006144,"rev_number":5347,"period_min":94.265632272078,"perigee_km":482.05700588394,"apogee_km":483.93283935158,"semimajor_km":6861.1319226178,"source":"CELESTRAK","updated_at":"2026-05-25T13:38:20.398925Z"}}